Aérodrome :
LOGIN :

S'inscrire | Disclaimer

   EN    FR    IT 

 










Légende :    VFR   VFR Marginal   IFR   IFR Intensif   IFR Très Intensif
Visi : 
Plafond : 
>= 8 km
>= 3000ft
5 à 8 km
1000 à 3000 ft
1500m à 5 km
500 à 1000 ft
800 à 1500m
200 à 500 ft
< 800m
< 200 ft
Symboles :   Orages  Brouillard  Fortes neiges  Fortes précipitations  Vent > 20 kt
SIGMETs :   Divers  Orages  Givrage  Turbulence  Onde Orograph.  Cendres Volcan.






- Altitude de l'aérodrome : 325 ft
- Code IATA : POX


LFPT - Pontoise

DERNIER METAR :
  • 130500Z AUTO 00000KT 7000 NSC M01/M02 Q1032

METARs EXPIRÉS :
  • 130430Z AUTO VRB03KT 8000 NSC M00/M01 Q1032
  • 130400Z AUTO 00000KT 5000 BR NSC M01/M02 Q1032
  • 130330Z AUTO 02004KT 7000 NSC 00/M00 Q1032
  • 130300Z AUTO 01006KT 8000 NSC 01/00 Q1032
  • 130230Z AUTO 02003KT 7000 NSC M01/M01 Q1032
  • 130200Z AUTO VRB02KT 4300 BR NSC M01/M01 Q1031

TAF N/A
ATIS : +33 1 30 30 52 08



MET'MAP, la Météo Aéronautique d'un coup d'oeil ! - Copyright ORBIFLY Décembre 2007 - Disclaimer

ORBIFLY MET'MAP TEAM :

Programmation & Développement : Alexandra Zaïnal
Sur une idée originale de : Baudouin d'Aumeries
Assistance à la programmation : Marc-Olivier Méhu
Soutien technique & logistique : Manuel Goepfert

Contact : metmap@orbifly.com




SOURCES & CREDITS :

   NOAA